TimeMDT,TemperatureF,Dew PointF,Humidity,Sea Level PressureIn,VisibilityMPH,Wind Direction,Wind SpeedMPH,Gust SpeedMPH,PrecipitationIn,Events,Conditions,WindDirDegrees,DateUTC
12:53 AM,28.9,8.1,41,30.24,10.0,SSW,5.8,-,N/A,,Clear,210,2013-03-20 06:53:00
1:53 AM,27.0,10.0,49,30.24,10.0,Calm,Calm,-,N/A,,Clear,0,2013-03-20 07:53:00
2:53 AM,26.1,10.0,51,30.23,10.0,Calm,Calm,-,N/A,,Clear,0,2013-03-20 08:53:00
3:53 AM,24.1,10.9,57,30.23,10.0,ESE,3.5,-,N/A,,Clear,110,2013-03-20 09:53:00
4:53 AM,24.1,12.0,60,30.20,10.0,ESE,3.5,-,N/A,,Clear,120,2013-03-20 10:53:00
5:53 AM,24.1,10.9,57,30.21,10.0,Calm,Calm,-,N/A,,Clear,0,2013-03-20 11:53:00
6:53 AM,21.9,12.0,66,30.23,10.0,South,6.9,-,N/A,,Clear,180,2013-03-20 12:53:00
7:53 AM,24.1,14.0,65,30.25,10.0,Variable,3.5,-,N/A,,Clear,0,2013-03-20 13:53:00
8:53 AM,28.0,12.9,53,30.23,10.0,Calm,Calm,-,N/A,,Clear,0,2013-03-20 14:53:00
9:53 AM,33.1,9.0,37,30.21,10.0,Calm,Calm,-,N/A,,Clear,0,2013-03-20 15:53:00
10:53 AM,36.0,9.0,33,30.18,10.0,Calm,Calm,-,N/A,,Clear,0,2013-03-20 16:53:00
11:53 AM,39.9,9.0,28,30.13,10.0,Calm,Calm,-,N/A,,Clear,0,2013-03-20 17:53:00
12:53 PM,42.1,8.1,25,30.09,10.0,East,3.5,-,N/A,,Mostly Cloudy,100,2013-03-20 18:53:00
1:53 PM,45.0,9.0,23,30.05,10.0,ENE,4.6,-,N/A,,Mostly Cloudy,70,2013-03-20 19:53:00
2:53 PM,46.9,10.0,22,30.01,10.0,Calm,Calm,-,N/A,,Overcast,0,2013-03-20 20:53:00
3:53 PM,48.9,10.0,21,29.98,10.0,Variable,4.6,-,N/A,,Overcast,0,2013-03-20 21:53:00
4:53 PM,50.0,12.9,23,29.96,10.0,ESE,8.1,-,N/A,,Mostly Cloudy,120,2013-03-20 22:53:00
5:53 PM,51.1,15.1,24,29.94,10.0,East,8.1,-,N/A,,Overcast,80,2013-03-20 23:53:00
6:53 PM,50.0,27.0,41,29.93,10.0,ESE,11.5,-,N/A,,Overcast,120,2013-03-21 00:53:00
7:53 PM,48.0,28.0,46,29.92,10.0,East,16.1,-,N/A,,Overcast,90,2013-03-21 01:53:00
8:53 PM,45.0,30.0,56,29.90,10.0,East,15.0,-,N/A,,Scattered Clouds,90,2013-03-21 02:53:00
9:53 PM,43.0,28.9,58,29.88,10.0,East,6.9,-,N/A,,Overcast,80,2013-03-21 03:53:00
10:53 PM,43.0,30.9,62,29.86,10.0,East,13.8,-,N/A,,Mostly Cloudy,80,2013-03-21 04:53:00